Rocky Mount, NC

8:13 PM EDT on August 31, 2016 (GMT -0400)
Rocky Mount-Wilson Regional

Weather History for KRWI - April, 2014

Change the Weather History Date:

Thursday, April 24, 2014

  Actual Average Record
Temperature  
Mean Temperature 55 °F -  
Max Temperature 70 °F 77 °F 94 °F (1960)
Min Temperature 41 °F 52 °F 35 °F (1982)
Degree Days  
Heating Degree Days 10    
Growing Degree Days 5 (Base 50)    
Moisture  
Dew Point 35 °F    
Average Humidity 51    
Maximum Humidity 82    
Minimum Humidity 22    
Precipitation  
Precipitation 0.00 in - - ()
Sea Level Pressure  
Sea Level Pressure 30.06 in    
Wind  
Wind Speed 3 mph (ENE)    
Max Wind Speed 9 mph    
Max Gust Speed -    
Visibility 10 miles    
Events      
Averages and records for this station are not official NWS values.
T = Trace of Precipitation, MM = Missing Value Source: NWS Daily Summary

Daily Weather History Graph

Daily Weather History Graph

Search for Another Location

Airport or City:

Trip Planner

Search our weather history database for the weather conditions in past years. The results will help you decide how hot, cold, wet, or windy it might be!

Date:

Astronomy

Apr. 24, 2014 Rise Set
Actual Time 6:27 AM EDT 7:52 PM EDT
Civil Twilight 6:00 AM EDT 8:19 PM EDT
Nautical Twilight 5:28 AM EDT 8:51 PM EDT
Astronomical Twilight 4:54 AM EDT 9:25 PM EDT
Moon 3:27 AM EDT (4/24) 3:15 PM EDT (4/24)
Length of Visible Light 14h 19m
Length of Day
13h 25m
Waning Crescent, 24% of the Moon is Illuminated
Apr 24
Waning Crescent
Apr 29
New
May 6
First Quarter
May 14
Full
May 21
Last Quarter

Hourly Weather History & Observations

Time (EDT) Temp. Windchill Dew Point Humidity Pressure Visibility Wind Dir Wind Speed Gust Speed Precip Events Conditions
12:53 AM 48.9 °F - 36.0 °F 61% 30.01 in 10.0 mi NNE 5.8 mph - N/A   Clear
1:53 AM 48.0 °F - 35.1 °F 61% 30.02 in 10.0 mi NNE 3.5 mph - N/A   Clear
2:53 AM 46.9 °F - 37.0 °F 68% 30.03 in 10.0 mi Calm Calm - N/A   Clear
3:53 AM 44.1 °F - 35.1 °F 71% 30.04 in 10.0 mi Calm Calm - N/A   Clear
4:53 AM 41.0 °F - 36.0 °F 82% 30.05 in 10.0 mi Calm Calm - N/A   Clear
5:53 AM 42.1 °F 37.7 °F 35.1 °F 76% 30.07 in 10.0 mi NNE 6.9 mph - N/A   Clear
6:53 AM 41.0 °F - 35.1 °F 79% 30.10 in 10.0 mi Calm Calm - N/A   Clear
7:53 AM 48.9 °F - 39.0 °F 69% 30.12 in 10.0 mi Calm Calm - N/A   Clear
8:53 AM 53.1 °F - 33.1 °F 47% 30.14 in 10.0 mi NE 9.2 mph - N/A   Clear
9:53 AM 55.9 °F - 30.9 °F 39% 30.15 in 10.0 mi North 6.9 mph - N/A   Clear
10:53 AM 59.0 °F - 28.0 °F 31% 30.16 in 10.0 mi NNE 3.5 mph - N/A   Clear
11:53 AM 61.0 °F - 28.0 °F 29% 30.14 in 10.0 mi Calm Calm - N/A   Clear
12:53 PM 64.0 °F - 26.1 °F 24% 30.12 in 10.0 mi Variable 3.5 mph - N/A   Clear
1:53 PM 64.9 °F - 28.0 °F 25% 30.09 in 10.0 mi Variable 3.5 mph - N/A   Clear
2:53 PM 66.0 °F - 26.1 °F 22% 30.06 in 10.0 mi Variable 3.5 mph - N/A   Clear
3:53 PM 69.1 °F - 30.0 °F 23% 30.03 in 10.0 mi Variable 3.5 mph - N/A   Clear
4:53 PM 69.1 °F - 32.0 °F 25% 30.01 in 10.0 mi Variable 3.5 mph - N/A   Clear
5:53 PM 69.1 °F - 33.1 °F 26% 30.01 in 10.0 mi South 4.6 mph - N/A   Clear
6:53 PM 66.0 °F - 36.0 °F 33% 30.02 in 10.0 mi SSW 5.8 mph - N/A   Clear
7:53 PM 59.0 °F - 43.0 °F 55% 30.03 in 10.0 mi Calm Calm - N/A   Clear
8:53 PM 54.0 °F - 43.0 °F 66% 30.04 in 10.0 mi Calm Calm - N/A   Clear
9:53 PM 51.1 °F - 44.1 °F 77% 30.04 in 10.0 mi Calm Calm - N/A   Clear
10:53 PM 50.0 °F - 43.0 °F 77% 30.03 in 10.0 mi SSE 3.5 mph - N/A   Clear
11:53 PM 53.1 °F - 41.0 °F 64% 30.03 in 10.0 mi SSE 4.6 mph - N/A   Clear